Flag for Barbados Weather past 2 weeks in Bridgetown, Barbados

Now
79 °F

Broken clouds.


Feels Like: 82 °F
Forecast: N/A
Wind: 13 mph from Northeast

Location: Grantley Adams

Current Time: Aug 29, 2014 at 7:01:43 PM

Latest Report: Aug 29, 2014 at 6:00 PM


Visibility: N/A

Pressure: 29.95 "Hg

Humidity: 89%

Dew point: 75 °F

Location of BridgetownLocation

Historic Weather in Bridgetown — Graph

°F

Bridgetown temperature yesterday

Maximum temperature yesterday: 86 °F (at 12:00 PM)
Minimum temperature yesterday: 79 °F (at 12:00 AM)
Average temperature yesterday: 81 °F

Past Weeks' High & Low Weather Summary

 TemperatureHumidityPressure
High88 °F (Aug 16, 12:00 PM)100% (Aug 27, 9:00 AM)30.04 "Hg (Aug 27, 9:00 AM)
Low77 °F (Aug 27, 8:00 PM)66% (Aug 18, 12:00 PM)29.83 "Hg (Aug 21, 2:00 PM)
Average82 °F82%29.93 "Hg
* Reported Aug 14 5:00 PM — Aug 29 5:00 PM, Bridgetown, Weather by CustomWeather, © 2014

Note: Actual official high and low records may vary slightly from our data, if they occured in-between our weather recording intervals... More about our weather records

Advertising

Bridgetown weather history for previous 24 hours

 ConditionsComfort  
Time TempWeatherWind HumidityBarometerVisibility
5:00 PM
Aug 29
82 °FBroken clouds.17 mph84%29.92 "HgN/A
3:00 PM86 °FScattered clouds.20 mph75%N/AN/A
2:00 PM84 °FBroken clouds.17 mph79%29.95 "HgN/A
1:00 PM86 °FBroken clouds.20 mph75%29.95 "HgN/A
12:00 PM84 °FBroken clouds.17 mph70%29.98 "HgN/A
11:00 AM82 °FBroken clouds.17 mph79%29.98 "HgN/A
10:00 AM82 °FScattered showers. Broken clouds.17 mph79%29.98 "HgN/A
9:00 AM82 °FBroken clouds.17 mph74%29.98 "HgN/A
8:00 AM82 °FBroken clouds.16 mph79%29.98 "HgN/A
7:00 AM81 °FBroken clouds.8 mph84%29.95 "HgN/A
6:00 AM81 °FScattered clouds.8 mph84%29.95 "HgN/A
5:00 AM79 °FPassing clouds.7 mph94%29.95 "HgN/A
4:00 AM81 °FPassing clouds.10 mph84%29.95 "HgN/A
3:00 AM81 °FPassing clouds.9 mph84%29.95 "HgN/A
2:00 AM81 °FPassing clouds.12 mph84%29.95 "HgN/A
1:00 AM81 °FPassing clouds.15 mph84%29.98 "HgN/A
12:00 AM81 °FPassing clouds.14 mph84%29.98 "HgN/A
11:00 PM
Aug 28
81 °FPassing clouds.14 mph84%29.98 "HgN/A
10:00 PM81 °FPassing clouds.8 mph89%29.98 "HgN/A
9:00 PM81 °FPassing clouds.7 mph84%29.98 "HgN/A
8:00 PM79 °FPassing clouds.8 mph89%29.95 "HgN/A
7:00 PM81 °FPassing clouds.9 mph89%29.95 "HgN/A
Weather by CustomWeather, © 2014

See weather overviewHow to use our weather pages